CAPE
0 0 0 0 0 0 0 0 0 0 0 0 0 0 0 0 0 0 0 0 0 0 0 0 0 0 0 0 0 72 722 1228 1309 1943 2364 2414 2392 2278 2206 2254 2210 2275 2360 2424 2488 2527 2144 1997 2141 1745 2035 2269 2351 2476 2531 2679 2814 2910 2832 2540 2891 3166 2912 2759 2651 2786 2398 2390 2199 1927 1680 1562 1298 954 1116 1037 1010 922 914 1265 1134 1630 1577 1659 1806 1916
0 0 0 0 0 0 0 0 0 0 0 0 0 0 0 0 0 0 0 0 0 0 0 0 0 0 0 0 0 228 813 1021 1438 1956 2483 2331 2447 2437 2391 2390 2479 2339 2317 2297 2385 2544 2126 2088 2268 2095 2180 2218 2430 2264 2280 2361 2241 2432 2336 2722 3180 3178 2804 2796 2903 2707 2570 2421 1669 1699 1600 1238 1026 851 672 667 992 1113 1084 1355 1273 1206 1693 1626 1721 1680
0 0 0 0 0 0 0 0 0 0 0 0 0 0 0 0 0 0 0 0 0 0 0 0 0 0 0 0 0 293 496 368 1045 1548 1942 2361 2582 2588 2451 2494 2640 2468 2416 2135 2254 2430 2384 2218 2320 2302 2355 2315 2374 2548 2480 2506 2300 2294 2627 3054 3511 3389 2952 2962 2806 2914 2533 2380 2071 1679 1377 1074 913 946 1157 730 661 1112 959 1190 1139 1250 1170 1706 1575 1713
0 0 0 0 0 0 0 0 0 0 0 0 0 0 0 0 0 0 0 0 0 0 0 0 0 0 0 0 0 9 111 448 1881 2144 2219 2265 2571 2605 2600 2570 2704 2634 2265 2193 2513 2609 2601 2461 2377 2558 2664 2755 2810 2518 2934 2849 2626 2588 2827 3273 3317 3450 3162 3021 2587 2632 2478 2736 2680 2383 1826 1531 864 935 1101 788 975 1254 1119 921 813 1041 1167 1161 1290 1627
0 0 0 0 0 0 0 0 0 0 0 0 0 0 0 0 0 0 0 0 0 0 0 0 0 0 0 0 0 0 498 1958 1702 2301 2579 2621 2463 2646 2633 2693 2755 2734 2706 2538 2612 2676 2728 2698 2581 2720 2730 2657 2808 2937 2311 3102 2922 2768 2606 3051 3326 3453 3117 2830 2966 3149 3079 2853 2679 2280 2101 1804 1596 1181 837 589 727 1123 1072 999 1046 934 1000 875 793 952
0 0 0 0 0 0 0 0 0 0 0 0 0 0 0 0 0 0 0 0 0 0 1 0 0 0 0 0 0 0 39 596 986 1421 2078 2460 2465 2629 2777 2769 2710 2908 2826 2877 2703 2738 2724 2658 2837 2853 2725 2842 2438 2457 2786 2966 2877 2778 2686 2775 3342 3387 3199 3217 3419 3265 2920 2537 2238 1878 1436 1245 1208 1060 832 632 553 742 869 628 1084 894 783 620 689 576
0 0 0 0 0 0 0 0 0 0 0 0 0 0 0 0 0 0 0 0 0 0 0 0 0 0 0 0 0 6 0 7 623 1192 1373 2003 2357 2426 2701 2763 2756 2997 3078 3078 2958 2755 2730 2746 2637 2311 3028 2600 2738 1897 1742 1602 1607 1960 2448 2733 3263 3362 3469 3500 3526 3376 2764 2554 2112 1724 1339 1284 1281 1129 1161 968 530 592 563 580 790 632 800 614 668 597
0 0 0 0 0 0 0 0 0 0 0 0 0 0 0 0 0 0 0 0 0 0 0 0 0 0 0 0 0 7 0 10 482 1014 1186 1492 2025 2123 2545 2870 2980 2935 3297 3165 3131 3069 2988 2991 2784 2673 2043 1901 1426 1282 1367 1321 1197 1067 1228 1699 2102 2211 2579 3120 3471 3156 2719 2412 2103 1892 1507 1348 1169 1094 1280 884 674 502 290 351 169 116 106 306 494 556
0 0 0 0 0 0 0 0 0 0 0 0 0 0 0 0 0 0 0 0 0 0 0 0 0 0 0 21 2 0 0 3 293 521 793 1334 1876 2318 2644 2704 2908 2928 3231 3190 2962 2896 3146 3379 3145 2276 1719 1558 1417 1484 1142 986 877 1049 1087 1164 1267 1451 1743 2080 2305 2677 2629 2294 2085 1906 1636 1337 1303 1183 889 579 269 250 280 314 151 29 2 109 416 495
0 0 0 0 0 0 0 0 0 0 0 0 0 0 0 0 0 0 0 0 0 0 0 0 0 0 0 0 0 0 0 0 6 247 517 1040 1752 2213 2642 2764 2939 2882 2940 2957 2853 3005 3259 3076 2728 2056 1851 1662 1472 1326 1009 618 631 804 924 1040 1082 1201 1574 1614 1504 1502 1911 2204 1632 1697 1561 1652 1175 849 675 490 375 354 309 244 200 90 36 4 133 448
0 0 0 0 0 0 0 0 0 0 0 0 0 0 0 0 0 0 0 0 0 0 0 25 15 0 0 10 0 0 0 226 71 177 222 484 1128 1752 2569 2792 2918 2880 2763 2424 2258 2842 3183 2864 2902 2178 2355 2102 1582 1366 1298 666 553 477 728 967 1218 1074 1213 1309 1009 948 1353 1650 1593 1265 1757 1730 1320 1090 795 618 427 241 304 180 179 133 68 64 63 231
0 0 0 0 0 0 0 0 0 0 0 0 0 0 0 0 0 0 0 0 0 0 29 2 1 3 0 12 20 68 26 103 209 282 297 334 104 398 1713 2274 2493 2519 2557 2470 2392 2599 2620 2557 2177 2139 2251 2299 2061 1516 1438 962 751 495 590 735 922 1223 1218 1084 735 666 1049 1322 1440 1766 1404 1507 1357 1175 946 708 458 272 158 84 73 43 19 12 63 166
0 0 0 0 0 0 0 0 0 0 0 0 0 0 0 0 0 0 0 0 0 0 37 0 0 0 0 345 59 48 84 287 507 479 564 629 586 497 33 1216 2012 2256 2272 2260 2316 2505 2198 2360 2227 1798 1987 2120 2451 1747 1427 1014 776 813 669 463 500 787 867 553 465 592 848 996 1286 1461 1549 1436 1492 1179 969 927 494 272 100 7 8 14 3 2 12 66
0 0 0 0 0 0 0 0 0 0 0 0 0 0 0 0 0 0 0 0 0 48 1 3 37 6 2 69 90 199 342 470 652 800 818 786 817 724 292 90 1397 2010 2178 2242 2212 2176 2105 2084 1850 1562 1715 1978 2113 1356 1166 903 808 704 567 526 216 447 505 572 517 498 734 893 1012 1056 1238 905 949 646 786 662 374 156 40 4 7 2 9 26 82 84
0 0 0 0 0 0 0 0 0 0 0 0 0 0 0 0 0 0 0 0 0 0 44 0 0 0 2 61 31 331 457 494 632 825 981 946 758 377 46 245 904 1378 1930 1968 1949 1597 1785 1842 1737 1644 1409 1592 1552 782 773 762 694 619 478 530 759 709 606 378 351 381 531 592 660 783 1082 1101 1229 1104 858 599 254 153 85 20 18 2 11 43 38 2
0 0 0 0 0 0 0 0 0 0 0 0 0 0 0 0 0 0 6 94 0 0 0 0 0 8 100 2 298 397 231 202 486 880 968 1071 923 814 797 1040 1154 1358 1577 1591 1649 1570 1650 1542 1506 1479 1453 1415 1476 803 784 844 947 623 400 432 760 890 844 543 297 254 148 523 738 1184 1066 1188 949 680 746 376 121 205 135 35 2 21 58 37 21 6
0 0 0 0 0 0 0 0 0 0 0 0 0 0 0 0 0 0 0 136 0 0 0 0 0 0 0 3 88 224 131 158 290 770 978 1097 1127 1136 1067 1057 1102 1306 1380 1525 1374 1375 1428 1532 1490 1494 1448 1509 1408 1036 944 1100 1040 914 749 738 849 984 868 705 522 367 311 632 1025 1033 1066 1222 883 798 732 573 690 410 242 109 100 377 142 36 3 6
0 1 0 0 0 0 0 0 0 0 0 0 0 0 0 0 0 0 0 0 0 0 0 2 0 0 0 12 2 75 188 168 197 523 971 1068 1203 1317 1338 1322 1258 1282 1348 1389 1329 1414 1425 1443 1531 1328 1309 1279 1018 840 743 968 1418 1239 859 896 861 863 826 697 577 484 586 868 995 712 736 616 497 578 444 22 18 60 35 30 8 8 30 26 10 0
0 1 0 0 0 0 0 0 0 0 0 0 0 0 0 0 0 0 0 0 0 0 0 0 0 0 0 69 2 84 114 162 163 410 948 993 1060 1170 1144 1058 989 986 1120 1100 1273 1250 1182 1317 1338 996 881 667 737 590 831 1013 1342 1166 940 898 872 785 772 858 831 790 711 801 934 900 955 719 629 420 204 286 35 18 5 213 50 25 71 51 1 0
0 1 3 0 0 0 0 0 1 0 0 0 0 0 0 0 0 0 0 0 0 0 0 0 0 0 1 290 88 41 50 78 146 298 887 883 876 934 963 915 977 1062 1074 1010 936 998 1040 937 958 934 944 764 501 188 779 1004 1012 997 1025 854 858 806 705 723 742 786 847 801 775 834 820 720 509 270 401 588 249 9 26 29 213 75 5 25 5 0
0 24 11 0 0 0 0 0 1 0 0 0 0 0 0 0 0 0 0 0 0 0 1 0 0 0 182 0 6 0 8 90 281 351 787 865 752 772 811 910 925 957 1065 1106 1071 1022 1160 1302 1281 1171 1173 1010 778 632 638 759 1126 1159 1000 727 616 630 612 645 631 659 807 938 1002 922 812 579 311 208 342 329 147 20 58 299 88 27 20 14 12 0
0 0 0 0 0 0 0 0 0 0 0 0 0 0 0 0 0 0 0 0 0 0 0 0 0 62 0 0 0 2 20 58 402 460 852 835 749 775 786 830 920 697 753 618 709 830 804 967 1075 1156 1179 1143 994 926 935 1039 962 970 933 832 622 485 582 710 933 1108 1179 1187 1134 990 895 806 532 423 246 370 315 260 378 294 151 116 55 20 0 0
151 7 0 0 0 26 0 0 0 0 0 0 0 0 0 0 0 0 0 0 0 0 0 0 1 258 0 0 2 32 44 140 359 478 826 647 619 523 555 626 617 560 393 340 470 452 498 522 568 587 934 1138 1185 1196 1155 1187 1294 1247 1134 967 877 775 872 971 998 1030 985 975 954 958 862 804 579 331 176 343 401 445 272 313 344 129 89 20 18 1
894 0 1 0 0 0 0 0 0 0 0 0 0 0 0 3 0 2 2 0 0 0 0 0 0 26 0 0 12 47 122 340 514 577 584 694 591 693 693 684 649 694 823 706 706 651 597 588 511 477 380 751 1086 1225 1257 1264 1303 1162 1202 1224 1104 1102 993 912 1007 910 942 822 729 815 717 629 389 208 132 528 509 618 540 459 481 259 210 68 65 0
1 0 0 10 0 0 0 0 0 0 0 0 0 0 0 0 0 68 0 35 0 0 0 0 4 300 0 0 20 64 87 97 277 320 385 736 698 682 712 622 609 704 683 658 597 560 463 384 397 416 459 389 664 739 950 951 1094 1093 1225 1213 1126 1281 1039 1104 1018 1013 972 733 790 860 703 769 713 559 458 543 553 828 728 663 548 353 323 278 181 20
0 0 0 1 8 13 7 8 0 0 0 0 0 0 0 0 5 0 0 0 0 8 1 0 3 136 0 7 10 20 25 57 146 273 399 549 541 477 517 590 571 654 675 564 486 360 72 156 281 333 371 387 288 528 608 792 828 879 1008 1037 1158 1094 1101 879 1060 991 983 982 986 854 894 741 614 530 522 529 610 753 702 664 610 514 437 363 266 197
0 0 0 0 0 0 0 0 0 0 0 0 0 0 0 0 2 113 0 0 0 35 4 26 238 1 5 18 1 4 29 43 115 209 280 512 471 345 351 432 496 534 508 428 302 199 196 248 316 287 368 452 474 264 409 515 635 708 870 828 768 748 889 958 988 1049 1070 1078 1136 1081 991 886 671 724 655 722 747 828 696 657 676 585 504 406 416 350
0 0 0 0 0 0 0 0 0 0 0 0 3 8 0 0 4 238 0 14 57 14 3 390 152 130 36 1 1 3 2 32 59 75 163 458 541 432 426 475 522 524 471 371 241 155 110 183 274 351 394 455 477 500 431 262 354 498 700 766 816 794 707 736 976 931 954 873 1028 1030 1079 1125 967 751 753 826 862 913 735 669 693 595 534 452 511 470
5 0 0 0 0 0 0 0 0 0 0 0 0 0 0 1 1 142 111 46 618 8 6 322 299 104 6 1 2 0 1 70 129 248 310 397 509 434 382 418 474 434 472 408 424 286 175 81 0 140 222 290 389 453 465 498 538 459 344 630 652 734 853 834 874 786 876 924 962 948 937 973 1014 930 855 781 764 837 800 620 675 616 606 563 555 541
7 0 0 0 0 0 0 0 0 0 0 0 0 0 0 0 2 2 1 0 260 298 270 212 40 0 0 1 0 1 0 51 152 196 268 363 442 439 381 343 398 338 260 246 228 220 168 0 0 0 0 0 0 0 0 146 164 309 404 328 324 429 529 823 872 880 939 905 993 987 980 1030 1098 1129 1072 916 806 559 603 786 732 629 561 558 506 596
415 1 0 3 2 0 0 0 0 3 0 0 0 0 0 0 0 0 0 3 26 37 6 0 0 2 0 2 0 0 1 17 116 188 243 319 354 376 342 242 270 236 80 57 0 0 0 134 8 0 0 0 0 0 0 0 0 0 0 11 125 308 318 556 699 780 812 886 886 913 915 858 864 914 997 993 964 951 849 786 772 833 667 611 604 632
298 21 3 4 2 0 0 0 0 0 5 1 1 0 0 0 0 0 0 0 78 32 3 0 0 0 0 0 0 2 22 44 130 145 151 197 252 257 285 208 185 181 149 121 78 21 3 51 107 91 30 0 0 0 0 0 0 0 0 0 0 0 9 370 586 644 674 762 832 901 973 855 811 807 839 843 886 858 824 823 708 672 701 580 669 800
258 22 9 12 5 31 0 0 0 0 0 0 0 0 0 0 0 0 0 0 0 2 20 4 0 0 0 0 5 14 28 44 135 183 200 201 220 245 244 213 204 172 136 112 90 58 31 0 32 52 29 0 0 0 0 0 0 0 0 0 0 0 0 0 0 26 307 471 586 722 891 768 782 790 702 764 667 708 749 709 763 754 680 611 747 593
258 55 39 145 25 85 2 20 7 3 1 1 0 0 0 0 0 0 0 0 0 0 0 0 0 0 0 0 2 28 80 76 126 144 169 179 211 220 224 200 212 196 155 108 85 83 58 5 0 0 0 0 0 0 0 0 0 0 0 0 0 0 0 0 0 0 0 2 154 471 630 560 650 740 741 690 609 574 584 726 765 774 817 783 764 597
17 69 78 125 85 66 16 2 14 2 23 0 0 0 0 0 0 0 0 0 0 0 0 0 0 0 0 0 0 0 26 63 75 181 170 178 162 168 188 216 185 131 112 79 28 70 48 40 1 0 0 0 0 0 0 0 2 4 7 7 4 1 0 0 0 0 0 0 0 0 10 294 572 649 740 819 734 641 646 661 772 792 871 851 795 667
2 34 43 48 59 28 18 23 7 20 0 0 0 0 0 0 0 0 0 0 0 0 0 0 0 0 0 0 0 0 0 0 3 29 112 132 165 184 163 141 105 29 10 6 4 0 0 2 3 4 0 0 0 6 7 11 13 10 7 2 0 0 0 0 0 0 0 0 0 0 0 0 0 59 321 668 742 702 856 925 851 873 811 788 854 844
0 33 4 20 12 20 24 53 6 0 0 0 0 0 0 0 0 0 0 0 0 0 0 0 0 0 0 0 0 0 0 0 0 0 0 2 18 60 105 162 165 158 137 101 76 61 41 30 36 12 22 34 53 33 19 24 19 20 13 8 5 4 2 1 2 1 0 0 0 0 0 0 0 0 2 100 366 601 708 814 893 975 960 961 882 717
0 0 0 0 0 1 21 64 5 0 2 0 0 0 0 0 0 0 0 0 0 0 0 0 0 0 0 0 0 0 0 0 0 0 0 0 0 0 0 7 22 52 74 114 136 134 90 0 6 19 6 18 37 29 32 1 1 0 1 0 0 0 0 0 0 0 0 0 0 0 0 0 0 0 0 0 60 220 415 625 801 964 876 873 907 808
0 0 2 7 0 0 0 19 0 7 0 0 0 0 0 0 0 1 0 0 0 0 0 0 0 0 0 0 0 0 0 0 0 0 0 0 0 0 0 0 0 0 0 0 0 4 7 3 8 14 11 8 6 5 0 0 0 0 0 0 0 0 0 0 0 0 0 0 0 0 0 0 0 0 0 0 0 31 233 511 728 768 868 890 964 985
0 0 0 0 0 0 0 0 7 0 0 0 0 0 0 2 8 2 2 0 0 0 0 0 0 0 0 0 0 0 0 2 0 0 0 0 0 0 0 0 0 0 0 0 0 0 0 0 0 0 0 0 0 0 0 0 0 0 0 0 0 0 0 0 0 0 0 0 0 0 0 0 0 0 0 0 0 1 67 190 568 806 818 830 841 937
0 0 0 0 0 0 0 1 0 0 0 0 0 0 0 4 5 3 8 0 0 0 0 0 0 0 0 0 0 0 0 0 0 0 0 0 0 0 0 0 0 0 0 0 0 0 0 0 0 0 0 0 0 0 0 0 0 0 0 0 0 0 0 0 0 0 0 0 0 0 0 0 0 0 0 0 0 1 24 48 124 516 842 895 877 845
0 0 0 0 0 0 0 0 0 0 0 0 0 0 0 0 10 3 0 0 0 0 0 0 0 0 0 0 0 0 0 0 0 0 0 0 0 0 0 0 0 0 0 0 0 0 0 0 0 0 0 0 0 0 0 0 0 0 0 0 0 0 0 0 0 0 0 0 0 0 0 0 0 0 0 0 0 0 12 60 85 305 739 823 846 930
0 0 0 0 0 0 0 1 0 8 0 0 0 0 0 3 4 1 2 1 0 0 0 0 0 0 0 0 0 0 0 0 0 0 0 0 0 0 0 0 0 0 0 0 0 0 0 0 0 0 0 0 0 0 0 0 0 0 0 0 0 0 0 0 0 0 0 0 0 0 0 0 0 0 0 0 0 0 0 24 105 184 355 511 641 812
0 0 0 0 0 0 0 7 0 0 0 0 0 0 2 4 6 0 11 6 0 0 0 0 0 0 0 0 0 0 0 0 0 0 0 2 2 3 3 1 0 0 0 0 0 0 0 0 0 0 0 0 0 0 0 0 0 0 0 0 0 0 0 0 0 0 0 0 0 0 0 0 0 0 0 0 0 0 0 3 71 149 134 217 395 580
0 0 0 0 0 0 1 0 0 0 0 0 0 0 0 5 3 0 11 9 7 3 0 0 0 0 0 0 0 0 0 0 0 0 0 0 1 2 3 3 2 0 0 0 0 0 0 0 0 0 0 0 0 0 0 0 0 0 0 0 0 0 0 0 0 0 0 0 0 0 0 0 0 0 0 0 0 0 0 0 26 98 163 147 190 195
0 0 0 0 0 0 0 1 0 0 0 0 0 0 0 0 0 0 1 1 0 0 0 0 0 0 0 0 0 0 0 0 0 0 0 0 0 0 0 0 0 0 0 0 0 0 0 0 0 0 0 0 0 0 0 0 0 0 0 0 0 0 0 0 0 0 0 0 0 0 0 0 0 0 0 0 0 0 0 0 0 23 99 140 186 191
0 0 0 0 3 0 6 0 1 0 0 0 0 0 0 0 0 0 0 0 0 0 0 0 0 0 0 0 0 0 0 0 0 0 0 0 0 0 0 0 0 0 0 0 0 0 0 0 0 0 0 0 0 0 0 0 0 0 0 0 0 0 0 0 0 0 0 0 0 0 0 0 0 0 0 0 0 0 0 0 0 0 19 134 192 185
0 0 0 0 0 0 0 4 5 2 2 3 0 0 1 2 1 1 0 0 0 0 0 2 2 2 1 3 2 2 2 2 2 2 2 2 1 0 0 0 0 0 0 0 0 0 0 0 0 0 0 0 0 0 0 0 0 0 0 2 0 1 1 2 1 1 0 0 0 0 0 0 0 0 0 0 0 0 0 0 0 1 8 104 198 253
0 0 0 0 0 0 0 0 4 13 8 4 4 2 2 4 3 0 0 0 1 1 1 0 0 0 0 0 0 0 1 2 2 3 3 3 2 0 0 0 0 0 0 0 0 0 0 0 0 0 0 0 1 0 0 1 1 0 2 0 0 2 0 0 0 0 1 1 0 0 0 0 0 0 0 0 0 0 0 0 0 10 8 7 120 267
0 0 0 0 1 0 0 0 1 3 3 0 1 6 5 2 1 0 0 0 0 0 0 1 1 1 0 0 0 0 0 0 0 0 0 0 0 0 0 0 0 0 0 0 0 0 1 0 0 0 0 1 3 3 2 1 2 3 3 0 0 0 0 0 0 0 0 0 2 2 2 0 0 0 0 0 0 0 0 0 0 68 28 5 6 4
1 3 0 0 0 0 0 0 0 0 2 3 1 0 0 0 0 0 0 0 0 0 0 0 0 0 0 0 0 0 0 0 0 0 0 0 0 0 0 0 0 0 0 0 0 0 0 0 1 1 0 2 2 1 3 0 3 1 2 0 1 0 1 4 2 0 0 0 2 0 3 1 2 3 3 0 0 0 0 0 0 0 0 0 0 0
Wind_Speed
nan nan nan nan nan nan nan nan nan nan nan nan nan nan nan nan nan nan nan nan nan nan nan nan nan nan nan nan nan nan 25 20 18 19 20 23 24 23 22 22 22 23 22 24 24 24 24 24 24 23 24 22 22 21 18 16 10 6 7 12 19 19 15 11 9 10 12 14 15 15 14 15 16 14 15 15 15 15 16 17 19 19 16 15 14 14
nan nan nan nan nan nan nan nan nan nan nan nan nan nan nan nan nan nan nan nan nan nan nan nan nan nan nan nan nan 24 23 20 18 19 19 21 22 22 22 22 23 23 25 25 24 24 24 23 25 23 24 24 23 21 17 14 11 10 11 14 23 24 20 17 11 10 13 14 14 14 14 14 15 15 13 15 15 15 17 16 17 17 16 15 14 13
nan nan nan nan nan nan nan nan nan nan nan nan nan nan nan nan nan nan nan nan nan nan nan nan nan nan nan nan nan 19 20 20 19 19 19 20 21 20 21 22 22 23 24 24 23 24 23 24 25 25 23 23 22 20 15 13 13 14 15 17 23 24 22 18 12 12 15 15 14 12 15 13 15 15 14 15 15 14 15 15 14 14 14 13 13 13
nan nan nan nan nan nan nan nan nan nan nan nan nan nan nan nan nan nan nan nan nan nan nan nan nan nan nan nan nan nan 18 22 22 19 19 19 18 17 20 22 21 21 22 22 21 21 22 22 24 24 24 23 22 17 14 13 15 17 18 17 21 22 20 17 12 13 18 19 18 17 15 15 14 15 15 15 13 14 14 14 13 13 12 13 13 13
nan nan nan nan nan nan nan nan nan nan nan nan nan nan nan nan nan nan nan nan nan nan nan nan nan nan nan nan nan nan 18 19 18 17 17 17 16 19 22 22 19 19 21 20 19 20 20 20 22 23 21 21 21 16 14 16 19 22 21 21 22 21 18 16 16 17 22 22 20 18 17 17 17 15 13 12 13 13 15 16 15 15 14 14 14 14
nan nan nan nan nan nan nan nan nan nan nan nan nan nan nan nan nan nan nan nan nan nan nan nan nan nan nan nan nan nan nan 10 12 12 12 14 16 17 18 19 19 19 19 18 18 18 17 17 18 18 18 18 17 17 20 22 23 24 24 23 22 20 19 18 18 19 21 21 19 17 16 15 13 13 12 12 14 15 14 15 16 15 15 16 16 16
nan nan nan nan nan nan nan nan nan nan nan nan nan nan nan nan nan nan nan nan nan nan nan nan nan nan nan nan nan nan nan nan 9 10 11 11 13 14 16 18 18 18 19 16 15 15 15 15 15 16 18 19 22 29 33 33 35 35 30 25 25 22 21 18 18 21 21 21 18 17 15 14 13 12 12 15 16 17 16 13 13 14 14 16 17 18
nan nan nan nan nan nan nan nan nan nan nan nan nan nan nan nan nan nan nan nan nan nan nan nan nan nan nan nan nan nan nan nan 7 9 9 10 10 12 15 19 18 15 16 14 12 12 13 13 13 19 35 35 32 27 24 26 29 32 36 39 36 31 28 23 20 21 21 19 17 15 13 13 12 13 14 14 15 17 16 15 14 14 15 16 17 17
nan nan nan nan nan nan nan nan nan nan nan nan nan nan nan nan nan nan nan nan nan nan nan nan nan nan nan nan nan nan nan nan 7 7 8 9 11 14 17 19 17 12 12 12 11 11 12 12 17 34 31 21 25 20 20 20 21 29 33 33 34 34 33 32 29 24 22 18 16 14 14 14 16 16 15 14 15 16 17 18 16 nan nan 16 16 17
nan nan nan nan nan nan nan nan nan nan nan nan nan nan nan nan nan nan nan nan nan nan nan nan nan nan nan nan nan nan nan nan nan 10 11 13 16 18 19 19 17 13 12 11 10 12 10 12 23 31 19 14 20 24 26 25 25 30 32 29 31 31 27 26 29 25 19 15 13 13 14 15 16 15 15 14 16 16 17 20 19 nan nan nan 17 16
nan nan nan nan nan nan nan nan nan nan nan nan nan nan nan nan nan nan nan nan nan nan nan nan nan nan nan nan nan nan nan 21 nan 19 24 24 22 20 19 18 18 16 14 11 10 10 11 15 27 30 23 21 29 31 35 37 36 32 26 25 25 24 24 24 24 21 18 15 12 11 13 14 15 15 15 15 16 17 18 21 21 21 nan nan nan 16
nan nan nan nan nan nan nan nan nan nan nan nan nan nan nan nan nan nan nan nan nan nan nan nan nan nan nan nan nan nan nan 23 20 23 27 27 27 26 21 18 17 15 15 14 12 13 15 21 27 29 25 28 28 25 30 31 32 30 30 25 21 19 17 19 19 18 18 17 17 15 14 14 15 16 15 16 18 18 20 nan nan nan nan nan nan 20
nan nan nan nan nan nan nan nan nan nan nan nan nan nan nan nan nan nan nan nan nan nan nan nan nan nan nan 28 nan nan nan 25 24 26 29 30 30 27 nan 20 17 14 15 16 16 18 19 22 26 27 30 31 29 22 26 29 30 26 22 27 28 28 25 20 20 17 17 17 18 19 17 14 14 15 14 17 19 20 21 nan nan nan nan nan nan nan
nan nan nan nan nan nan nan nan nan nan nan nan nan nan nan nan nan nan nan nan nan nan nan nan nan nan nan nan nan 27 29 29 28 29 31 32 31 28 25 nan 18 16 15 18 19 20 19 22 27 28 30 33 33 24 20 25 30 29 29 24 15 11 16 21 19 15 16 19 21 22 21 17 14 12 13 16 19 19 nan nan nan nan nan nan nan nan
nan nan nan nan nan nan nan nan nan nan nan nan nan nan nan nan nan nan nan nan nan nan nan nan nan nan nan nan nan 31 31 32 33 33 34 35 33 30 nan 25 22 18 18 20 21 21 21 24 29 28 33 34 37 28 22 25 25 29 31 27 17 12 14 12 13 14 16 18 19 18 19 20 20 18 17 17 18 18 nan nan nan nan nan nan nan nan
nan nan nan nan nan nan nan nan nan nan nan nan nan nan nan nan nan nan nan nan nan nan nan nan nan nan 28 nan 31 29 33 36 37 38 38 40 38 35 33 31 29 26 24 24 25 24 26 28 29 31 33 37 36 34 29 27 29 31 33 30 23 22 22 19 20 19 17 12 14 16 17 19 22 20 20 21 20 21 22 nan nan nan nan nan nan nan
nan nan nan nan nan nan nan nan nan nan nan nan nan nan nan nan nan nan nan 23 nan nan nan nan nan nan nan nan nan 31 34 38 40 41 41 41 40 38 37 34 32 30 28 28 27 28 30 31 32 34 37 36 35 34 35 33 31 32 36 34 28 24 23 25 25 21 18 15 13 18 21 21 21 21 22 22 21 20 21 25 26 27 31 nan nan nan
nan nan nan nan nan nan nan nan nan nan nan nan nan nan nan nan nan nan nan nan nan nan nan nan nan nan nan nan nan nan 35 40 42 42 42 41 40 40 38 37 36 34 32 31 31 32 32 33 36 38 37 37 37 38 40 36 32 31 34 34 32 29 28 25 23 21 20 19 21 21 21 21 21 23 23 nan nan nan nan nan nan nan nan nan nan nan
nan nan nan nan nan nan nan nan nan nan nan nan nan nan nan nan nan nan nan nan nan nan nan nan nan nan nan nan nan nan 38 40 41 41 42 43 42 42 41 41 39 37 36 35 35 35 35 35 36 39 39 40 40 39 39 37 34 33 35 34 34 34 29 25 22 23 22 21 22 22 20 20 21 23 23 20 nan nan nan 21 nan nan nan nan nan nan
nan nan nan nan nan nan nan nan nan nan nan nan nan nan nan nan nan nan nan nan nan nan nan nan nan nan nan 32 nan nan nan nan 39 40 42 43 43 42 41 40 39 38 37 36 36 37 37 38 39 40 39 39 40 40 39 39 35 33 34 37 38 34 27 22 22 24 22 20 21 20 21 21 21 20 19 17 15 nan nan nan 22 nan nan nan nan nan
nan nan nan nan nan nan nan nan nan nan nan nan nan nan nan nan nan nan nan nan nan nan nan nan nan nan 30 nan nan nan nan nan 34 37 39 41 42 42 42 41 40 41 40 39 38 39 40 40 41 43 41 41 42 41 39 39 38 36 35 35 39 35 27 23 23 23 22 21 20 22 22 23 20 18 15 15 14 nan nan 15 nan nan nan nan nan nan
nan nan nan nan nan nan nan nan nan nan nan nan nan nan nan nan nan nan nan nan nan nan nan nan nan nan nan nan nan nan nan nan 30 31 38 41 41 42 41 41 40 40 38 37 37 37 37 39 40 42 42 42 42 41 42 42 40 37 36 37 37 36 31 28 25 22 22 22 22 21 22 22 19 17 14 16 15 14 15 17 19 21 nan nan nan nan
26 nan nan nan nan nan nan nan nan nan nan nan nan nan nan nan nan nan nan nan nan nan nan nan nan 22 nan nan nan nan nan 27 27 28 34 34 36 37 37 36 36 35 34 33 33 33 34 36 37 40 44 44 44 43 44 43 40 37 38 39 37 34 30 26 24 23 23 22 22 19 17 18 17 16 15 16 16 15 16 18 19 20 nan nan nan nan
28 nan nan nan nan nan nan nan nan nan nan nan nan nan nan nan nan nan nan nan nan nan nan nan nan nan nan nan nan nan 26 26 25 27 28 29 30 32 33 35 35 33 32 31 30 30 31 33 36 38 41 43 44 45 45 44 42 41 41 39 35 31 28 25 25 25 24 22 20 19 17 16 15 14 14 14 14 15 15 17 17 17 16 nan nan nan
nan nan nan nan nan nan nan nan nan nan nan nan nan nan nan nan nan nan nan nan nan nan nan nan nan 25 nan nan nan nan nan nan 26 26 25 27 28 29 31 31 30 31 30 29 29 30 32 35 38 40 42 44 45 45 42 41 42 41 41 37 33 29 28 28 27 26 25 22 20 19 18 18 18 17 15 13 12 14 15 17 17 16 16 17 17 nan
nan nan nan nan nan nan nan nan nan nan nan nan nan nan nan nan nan nan nan nan nan nan nan nan nan 31 nan nan nan nan nan nan 25 24 25 26 27 27 27 27 27 29 31 32 32 34 nan 37 38 40 41 41 40 37 35 33 33 35 35 34 31 30 30 30 28 27 26 25 23 21 19 18 17 16 14 12 11 14 15 16 17 17 17 17 18 19
nan nan nan nan nan nan nan nan nan nan nan nan nan nan nan nan nan 27 nan nan nan nan nan nan 26 nan nan nan nan nan nan nan 26 26 26 26 28 28 27 25 26 28 31 33 33 33 35 38 39 40 39 36 35 32 30 28 28 28 29 30 30 30 30 29 28 27 26 25 24 23 22 21 19 16 13 13 13 15 17 17 18 18 17 17 19 21
nan nan nan nan nan nan nan nan nan nan nan nan nan nan nan nan nan 29 nan nan nan nan nan 28 33 32 nan nan nan nan nan nan nan nan 27 27 28 29 29 29 30 31 32 32 34 36 37 38 39 39 37 36 34 33 32 31 30 29 27 27 28 29 29 28 27 27 26 26 24 22 23 22 20 18 16 16 17 18 18 20 21 20 20 20 20 21
nan nan nan nan nan nan nan nan nan nan nan nan nan nan nan nan nan 31 37 nan 32 nan nan 32 33 34 nan nan nan nan nan nan 27 28 29 30 30 32 32 33 34 34 34 35 35 36 39 nan nan 40 38 36 36 36 35 34 34 32 31 31 31 31 32 30 29 30 29 28 26 25 22 21 21 21 21 21 20 21 22 22 22 23 23 25 24 25
nan nan nan nan nan nan nan nan nan nan nan nan nan nan nan nan nan nan nan nan 42 42 42 42 nan nan nan nan nan nan nan nan 31 30 31 32 33 34 36 36 37 37 37 37 37 37 39 nan nan nan nan nan nan nan nan 36 35 34 33 33 33 34 35 33 33 31 31 31 30 29 26 24 24 24 24 24 24 24 25 26 27 26 26 26 27 28
21 nan nan nan nan nan nan nan nan nan nan nan nan nan nan nan nan nan nan nan nan nan nan nan nan nan nan nan nan nan nan nan 34 35 35 35 35 36 37 38 39 39 nan nan nan nan nan 42 nan nan nan nan nan nan nan nan nan nan nan nan 35 35 35 35 35 34 33 33 33 32 31 30 29 29 28 29 28 28 28 28 29 28 27 28 29 31
23 nan nan nan nan nan nan nan nan nan nan nan nan nan nan nan nan nan nan nan nan nan nan nan nan nan nan nan nan nan nan nan 38 38 37 37 38 38 40 41 41 42 42 42 nan nan nan nan 46 nan nan nan nan nan nan nan nan nan nan nan nan nan nan 37 37 37 37 36 36 36 35 35 36 35 35 33 33 32 32 32 31 32 31 31 33 35
29 nan nan nan nan nan nan nan nan nan nan nan nan nan nan nan nan nan nan nan nan nan nan nan nan nan nan nan nan nan nan nan 42 41 42 42 42 42 43 44 44 44 45 45 nan nan nan nan nan nan nan nan nan nan nan nan nan nan nan nan nan nan nan nan nan nan 40 40 39 41 41 39 40 41 40 40 40 39 37 35 34 34 35 35 37 39
29 nan nan 27 nan nan nan nan nan nan nan nan nan nan nan nan nan nan nan nan nan nan nan nan nan nan nan nan nan nan nan nan 44 44 44 43 43 44 45 46 46 48 49 49 nan nan nan nan nan nan nan nan nan nan nan nan nan nan nan nan nan nan nan nan nan nan nan nan 46 44 43 43 44 43 43 43 42 42 41 39 36 35 35 36 38 37
nan nan nan 29 nan nan nan nan nan nan nan nan nan nan nan nan nan nan nan nan nan nan nan nan nan nan nan nan nan nan nan nan nan 49 49 48 48 47 48 48 48 47 47 nan nan nan nan nan nan nan nan nan nan nan nan nan nan nan nan nan nan nan nan nan nan nan nan nan nan nan nan 45 45 44 44 43 43 41 39 36 33 31 32 33 34 35
nan nan nan nan nan nan nan nan nan nan nan nan nan nan nan nan nan nan nan nan nan nan nan nan nan nan nan nan nan nan nan nan nan nan 53 53 53 53 52 51 51 nan nan nan nan nan nan nan nan nan nan nan nan nan nan nan nan nan nan nan nan nan nan nan nan nan nan nan nan nan nan nan nan nan 39 38 36 34 32 31 33 33 34 34 35 36
nan nan nan nan nan nan nan nan nan nan nan nan nan nan nan nan nan nan nan nan nan nan nan nan nan nan nan nan nan nan nan nan nan nan nan nan nan nan 57 57 56 57 56 54 nan nan nan nan nan nan nan nan nan nan nan nan nan nan nan nan nan nan nan nan nan nan nan nan nan nan nan nan nan nan nan nan 34 32 33 34 37 38 38 37 36 36
nan nan nan nan nan nan nan nan nan nan nan nan nan nan nan nan nan nan nan nan nan nan nan nan nan nan nan nan nan nan nan nan nan nan nan nan nan nan nan nan nan nan nan 58 57 56 nan nan nan nan nan nan nan nan nan nan nan nan nan nan nan nan nan nan nan nan nan nan nan nan nan nan nan nan nan nan nan 43 43 43 42 40 40 39 40 39
nan nan nan nan nan nan nan nan nan nan nan nan nan nan nan nan nan nan nan nan nan nan nan nan nan nan nan nan nan nan nan nan nan nan nan nan nan nan nan nan nan nan nan nan nan nan nan nan nan nan nan nan nan nan nan nan nan nan nan nan nan nan nan nan nan nan nan nan nan nan nan nan nan nan nan nan nan nan 51 49 48 47 46 46 45 45
nan nan nan nan nan nan nan nan nan nan nan nan nan nan nan nan nan nan nan nan nan nan nan nan nan nan nan nan nan nan nan nan nan nan nan nan nan nan nan nan nan nan nan nan nan nan nan nan nan nan nan nan nan nan nan nan nan nan nan nan nan nan nan nan nan nan nan nan nan nan nan nan nan nan nan nan nan nan nan 56 55 53 51 50 49 49
nan nan nan nan nan nan nan nan nan nan nan nan nan nan nan nan nan nan nan nan nan nan nan nan nan nan nan nan nan nan nan nan nan nan nan nan nan nan nan nan nan nan nan nan nan nan nan nan nan nan nan nan nan nan nan nan nan nan nan nan nan nan nan nan nan nan nan nan nan nan nan nan nan nan nan nan nan nan nan nan 60 59 57 55 53 51
nan nan nan nan nan nan nan nan nan nan nan nan nan nan nan nan nan nan nan nan nan nan nan nan nan nan nan nan nan nan nan nan nan nan nan nan nan nan nan nan nan nan nan nan nan nan nan nan nan nan nan nan nan nan nan nan nan nan nan nan nan nan nan nan nan nan nan nan nan nan nan nan nan nan nan nan nan nan nan nan nan 60 58 56 53 51
nan nan nan nan nan nan nan nan nan nan nan nan nan nan nan nan nan nan nan nan nan nan nan nan nan nan nan nan nan nan nan nan nan nan nan nan nan nan nan nan nan nan nan nan nan nan nan nan nan nan nan nan nan nan nan nan nan nan nan nan nan nan nan nan nan nan nan nan nan nan nan nan nan nan nan nan nan nan nan nan 57 57 56 54 51 49
nan nan nan nan nan nan nan nan nan nan nan nan nan nan nan nan nan nan nan nan nan nan nan nan nan nan nan nan nan nan nan nan nan nan nan nan nan nan nan nan nan nan nan nan nan nan nan nan nan nan nan nan nan nan nan nan nan nan nan nan nan nan nan nan nan nan nan nan nan nan nan nan nan nan nan nan nan nan nan nan nan 54 54 52 50 50
nan nan nan nan nan nan nan nan nan nan nan nan nan nan nan nan nan nan nan nan nan nan nan nan nan nan nan nan nan nan nan nan nan nan nan nan nan nan nan nan nan nan nan nan nan nan nan nan nan nan nan nan nan nan nan nan nan nan nan nan nan nan nan nan nan nan nan nan nan nan nan nan nan nan nan nan nan nan nan nan nan nan 52 51 50 49
nan nan nan nan nan nan nan nan nan nan nan nan nan nan nan nan nan nan nan nan nan nan nan nan nan nan nan nan nan nan nan nan nan nan nan nan nan nan nan nan nan nan nan nan nan nan nan nan nan nan nan nan nan nan nan nan nan nan nan nan nan nan nan nan nan nan nan nan nan nan nan nan nan nan nan nan nan nan nan nan nan nan nan 50 49 47
nan nan nan nan nan nan nan nan nan nan nan nan nan nan nan nan nan nan nan nan nan nan nan nan nan nan nan nan nan nan nan nan nan nan nan nan nan nan nan nan nan nan nan nan nan nan nan nan nan nan nan nan nan nan nan nan nan nan nan nan nan nan nan nan nan nan nan nan nan nan nan nan nan nan nan nan nan nan nan nan nan nan nan 49 48 46
nan nan nan nan nan nan nan nan nan nan nan nan nan nan nan nan nan nan nan nan nan nan nan nan nan nan nan nan nan nan nan nan nan nan nan nan nan nan nan nan nan nan nan nan nan nan nan nan nan nan nan nan nan nan nan nan nan nan nan nan nan nan nan nan nan nan nan nan nan nan nan nan nan nan nan nan nan nan nan nan nan nan nan 52 51 49
nan nan nan nan nan nan nan nan nan nan nan nan nan nan nan nan nan nan nan nan nan nan nan nan nan nan nan nan nan nan nan nan nan nan nan nan nan nan nan nan nan nan nan nan nan nan nan nan nan nan nan nan nan nan nan nan nan nan nan nan nan nan nan nan nan nan nan nan nan nan nan nan nan nan nan nan nan nan nan nan nan nan nan nan 55 55
nan nan nan nan nan nan nan nan nan nan nan nan nan nan nan nan nan nan nan nan nan nan nan nan nan nan nan nan nan nan nan nan nan nan nan nan nan nan nan nan nan nan nan nan nan nan nan nan nan nan nan nan nan nan nan nan nan nan nan nan nan nan nan nan nan nan nan nan nan nan nan nan nan nan nan nan nan nan nan nan nan nan nan nan nan nan
nan nan nan nan nan nan nan nan nan nan nan nan nan nan nan nan nan nan nan nan nan nan nan nan nan nan nan nan nan nan nan nan nan nan nan nan nan nan nan nan nan nan nan nan nan nan nan nan nan nan nan nan nan nan nan nan nan nan nan nan nan nan nan nan nan nan nan nan nan nan nan nan nan nan nan nan nan nan nan nan nan nan nan nan nan nan
Wind_Direction
nan nan nan nan nan nan nan nan nan nan nan nan nan nan nan nan nan nan nan nan nan nan nan nan nan nan nan nan nan nan 260 259 259 264 262 267 270 272 273 275 276 275 279 279 285 291 293 293 295 300 303 309 313 314 317 317 312 281 244 230 239 259 292 302 286 282 290 291 289 287 287 287 285 280 279 277 279 282 277 283 289 292 293 297 299 296
nan nan nan nan nan nan nan nan nan nan nan nan nan nan nan nan nan nan nan nan nan nan nan nan nan nan nan nan nan 261 261 261 263 266 264 268 270 269 274 274 272 270 269 279 284 293 295 295 300 301 305 312 316 319 317 312 299 263 251 238 240 253 285 297 286 275 283 286 285 282 283 281 282 285 285 281 284 286 288 286 283 284 287 290 296 294
nan nan nan nan nan nan nan nan nan nan nan nan nan nan nan nan nan nan nan nan nan nan nan nan nan nan nan nan nan 260 263 257 259 259 262 265 266 261 264 265 264 267 272 281 285 292 298 303 305 304 307 312 316 313 310 288 270 254 245 240 245 257 278 286 282 278 285 283 274 274 272 276 277 267 263 270 276 287 289 286 284 282 286 293 292 293
nan nan nan nan nan nan nan nan nan nan nan nan nan nan nan nan nan nan nan nan nan nan nan nan nan nan nan nan nan nan 257 259 254 255 256 256 259 251 254 256 258 267 274 282 289 297 302 304 305 306 308 308 304 302 286 268 264 250 243 248 255 264 272 273 278 281 282 278 272 263 268 262 264 273 269 267 273 276 282 282 279 279 285 290 293 299
nan nan nan nan nan nan nan nan nan nan nan nan nan nan nan nan nan nan nan nan nan nan nan nan nan nan nan nan nan nan 254 253 255 251 250 243 237 239 242 249 255 267 272 278 290 297 300 307 308 307 304 302 299 293 270 249 248 242 247 252 257 262 269 270 279 284 283 280 276 271 270 268 266 272 273 270 269 271 274 278 277 274 275 279 282 289
nan nan nan nan nan nan nan nan nan nan nan nan nan nan nan nan nan nan nan nan nan nan nan nan nan nan nan nan nan nan nan 249 243 236 242 240 242 243 247 254 259 264 273 282 293 300 304 306 300 300 302 298 290 267 241 233 234 241 245 251 254 258 263 269 281 286 280 278 279 280 280 280 279 279 280 275 271 273 278 277 278 279 278 275 278 283
nan nan nan nan nan nan nan nan nan nan nan nan nan nan nan nan nan nan nan nan nan nan nan nan nan nan nan nan nan nan nan nan 233 212 216 231 234 240 243 254 261 271 279 285 288 297 300 298 297 296 282 267 254 243 235 228 217 214 220 234 242 243 248 258 271 271 269 272 275 281 280 277 278 276 271 263 263 260 259 271 286 288 289 286 283 282
nan nan nan nan nan nan nan nan nan nan nan nan nan nan nan nan nan nan nan nan nan nan nan nan nan nan nan nan nan nan nan nan 233 214 206 214 223 230 239 250 256 268 281 285 291 290 288 288 287 277 254 255 263 258 262 265 249 233 234 228 219 222 223 228 240 251 255 261 265 271 271 270 270 265 265 268 258 250 255 266 283 296 301 301 293 290
nan nan nan nan nan nan nan nan nan nan nan nan nan nan nan nan nan nan nan nan nan nan nan nan nan nan nan nan nan nan nan nan 233 218 212 211 216 222 235 244 246 251 269 274 274 279 277 278 275 262 270 298 296 280 278 282 262 253 257 256 248 235 228 220 218 229 239 241 251 259 262 263 259 263 266 266 264 261 261 269 275 nan nan 299 293 287
nan nan nan nan nan nan nan nan nan nan nan nan nan nan nan nan nan nan nan nan nan nan nan nan nan nan nan nan nan nan nan nan nan 217 209 215 212 215 229 245 250 239 235 250 252 259 265 268 267 270 292 283 250 244 243 242 238 248 257 256 248 247 245 241 233 223 223 228 235 246 253 261 262 263 264 267 271 272 276 277 280 nan nan nan 299 289
nan nan nan nan nan nan nan nan nan nan nan nan nan nan nan nan nan nan nan nan nan nan nan nan nan nan nan nan nan nan nan 222 nan 223 212 210 209 216 229 246 254 247 243 243 248 251 259 258 261 269 272 269 251 247 237 228 214 214 233 253 246 243 245 245 242 242 240 236 239 243 256 264 264 268 272 276 284 285 289 288 289 290 nan nan nan 288
nan nan nan nan nan nan nan nan nan nan nan nan nan nan nan nan nan nan nan nan nan nan nan nan nan nan nan nan nan nan nan 227 216 215 211 211 213 216 227 240 253 256 256 262 257 254 254 254 261 269 272 272 266 265 264 256 237 216 202 207 236 243 237 235 239 242 245 252 260 255 263 269 272 280 282 288 292 293 293 nan nan nan nan nan nan 285
nan nan nan nan nan nan nan nan nan nan nan nan nan nan nan nan nan nan nan nan nan nan nan nan nan nan nan 225 nan nan nan 223 218 208 206 206 210 218 nan 230 244 256 267 271 265 261 263 268 270 271 276 287 300 302 291 282 278 266 237 210 205 195 193 213 229 236 250 257 260 260 263 268 276 282 282 288 292 293 292 nan nan nan nan nan nan nan
nan nan nan nan nan nan nan nan nan nan nan nan nan nan nan nan nan nan nan nan nan nan nan nan nan nan nan nan nan 229 221 220 220 215 211 211 213 217 225 nan 239 247 259 265 265 266 271 276 275 277 283 287 287 279 274 281 287 283 277 265 235 215 197 202 210 229 251 260 266 271 274 274 271 268 275 281 288 291 nan nan nan nan nan nan nan nan
nan nan nan nan nan nan nan nan nan nan nan nan nan nan nan nan nan nan nan nan nan nan nan nan nan nan nan nan nan 230 226 223 222 221 219 219 222 226 nan 232 239 249 255 257 262 264 272 277 278 282 285 287 285 290 279 285 286 283 283 279 278 274 276 271 259 243 246 257 271 286 292 297 293 292 287 279 282 286 nan nan nan nan nan nan nan nan
nan nan nan nan nan nan nan nan nan nan nan nan nan nan nan nan nan nan nan nan nan nan nan nan nan nan 231 nan 241 236 233 228 226 227 224 226 228 233 237 238 241 248 253 256 262 267 272 279 283 286 288 287 292 298 286 278 284 290 289 284 285 296 294 275 268 272 269 264 281 297 294 283 274 275 282 284 284 284 286 nan nan nan nan nan nan nan
nan nan nan nan nan nan nan nan nan nan nan nan nan nan nan nan nan nan nan 243 nan nan nan nan nan nan nan nan nan 241 236 232 229 230 230 230 235 239 242 244 246 250 254 259 264 268 277 283 287 288 289 289 292 293 285 278 282 291 293 285 284 293 284 269 270 287 302 303 289 275 272 275 279 281 280 284 291 295 295 292 287 284 280 nan nan nan
nan nan nan nan nan nan nan nan nan nan nan nan nan nan nan nan nan nan nan nan nan nan nan nan nan nan nan nan nan nan 235 231 230 230 234 236 239 244 247 249 250 251 255 261 264 268 270 270 270 267 277 279 278 281 283 282 280 286 291 285 282 287 285 272 273 286 294 287 277 286 287 287 292 289 289 nan nan nan nan nan nan nan nan nan nan nan
nan nan nan nan nan nan nan nan nan nan nan nan nan nan nan nan nan nan nan nan nan nan nan nan nan nan nan nan nan nan 230 228 229 232 235 238 241 244 247 249 252 254 255 257 261 265 267 263 266 272 274 274 276 276 281 285 283 287 290 286 282 284 279 272 267 276 282 288 282 288 296 297 292 293 299 309 nan nan nan 318 nan nan nan nan nan nan
nan nan nan nan nan nan nan nan nan nan nan nan nan nan nan nan nan nan nan nan nan nan nan nan nan nan nan 243 nan nan nan nan 229 233 237 241 244 246 249 252 254 254 256 258 259 260 261 261 264 268 268 271 275 278 282 285 283 288 288 291 289 281 266 263 272 276 280 285 287 293 288 285 289 294 302 308 320 nan nan nan 312 nan nan nan nan nan
nan nan nan nan nan nan nan nan nan nan nan nan nan nan nan nan nan nan nan nan nan nan nan nan nan nan 244 nan nan nan nan nan 231 235 242 246 251 252 253 255 256 257 256 255 256 256 256 259 260 261 260 261 265 271 277 280 282 283 284 289 290 284 273 272 275 273 272 277 280 282 285 285 289 299 299 306 311 nan nan 310 nan nan nan nan nan nan
nan nan nan nan nan nan nan nan nan nan nan nan nan nan nan nan nan nan nan nan nan nan nan nan nan nan nan nan nan nan nan nan 239 244 250 250 253 255 256 255 254 254 254 253 251 251 248 249 251 255 256 255 257 263 270 272 272 274 280 285 285 284 280 281 278 270 269 270 271 281 279 286 292 299 300 304 306 307 308 302 304 308 nan nan nan nan
224 nan nan nan nan nan nan nan nan nan nan nan nan nan nan nan nan nan nan nan nan nan nan nan nan 248 nan nan nan nan nan 237 246 250 252 252 253 255 255 255 253 251 251 248 247 246 245 244 247 250 253 257 260 261 265 268 267 268 274 278 281 281 280 277 272 267 265 268 273 284 288 292 294 300 306 309 308 311 309 307 313 317 nan nan nan nan
223 nan nan nan nan nan nan nan nan nan nan nan nan nan nan nan nan nan nan nan nan nan nan nan nan nan nan nan nan nan 239 241 247 250 253 251 251 252 252 250 249 247 244 243 242 241 241 243 245 247 250 252 255 256 259 264 269 269 270 272 272 268 266 264 261 261 263 268 274 285 292 296 300 316 318 311 307 309 307 304 309 313 311 nan nan nan
nan nan nan nan nan nan nan nan nan nan nan nan nan nan nan nan nan nan nan nan nan nan nan nan nan 249 nan nan nan nan nan nan 247 247 247 247 247 246 246 246 247 246 243 241 241 241 241 242 243 244 247 249 254 258 258 261 262 263 263 263 261 257 256 255 255 258 266 271 278 288 295 305 311 318 322 318 308 305 303 302 302 300 302 298 297 nan
nan nan nan nan nan nan nan nan nan nan nan nan nan nan nan nan nan nan nan nan nan nan nan nan nan 248 nan nan nan nan nan nan 245 240 239 242 242 244 245 245 244 243 242 242 242 242 nan 242 243 245 246 249 251 258 263 261 257 253 251 249 250 256 255 255 255 261 266 271 278 284 293 302 310 315 319 312 300 302 299 299 299 298 296 294 292 290
nan nan nan nan nan nan nan nan nan nan nan nan nan nan nan nan nan 226 nan nan nan nan nan nan 246 nan nan nan nan nan nan nan 244 244 248 250 247 245 245 245 243 242 242 242 242 244 245 245 244 244 245 247 251 254 257 259 258 255 253 253 255 256 258 257 260 266 270 272 277 282 288 294 299 301 300 293 290 292 294 294 295 297 295 291 291 292
nan nan nan nan nan nan nan nan nan nan nan nan nan nan nan nan nan 230 nan nan nan nan nan 250 264 263 nan nan nan nan nan nan nan nan 250 251 250 250 249 247 246 245 244 243 242 241 242 242 242 243 243 245 248 250 253 253 253 253 252 256 257 257 257 260 264 270 273 277 279 281 283 285 287 290 291 287 287 288 288 288 290 291 290 290 290 292
nan nan nan nan nan nan nan nan nan nan nan nan nan nan nan nan nan 233 231 nan 223 nan nan 257 261 259 nan nan nan nan nan nan 249 247 247 251 252 252 250 248 247 246 244 244 243 242 241 nan nan 240 240 242 244 245 244 246 248 249 251 251 252 255 258 262 265 270 274 276 277 278 278 281 283 285 288 289 288 288 287 287 286 286 287 288 288 288
nan nan nan nan nan nan nan nan nan nan nan nan nan nan nan nan nan nan nan nan 234 242 249 255 nan nan nan nan nan nan nan nan 249 249 250 251 251 250 249 248 248 247 246 245 245 244 242 nan nan nan nan nan nan nan nan 245 245 246 248 251 253 256 258 262 265 270 273 274 275 276 276 278 279 282 285 286 287 287 286 285 285 285 285 286 288 289
253 nan nan nan nan nan nan nan nan nan nan nan nan nan nan nan nan nan nan nan nan nan nan nan nan nan nan nan nan nan nan nan 252 251 249 249 249 249 249 249 248 247 nan nan nan nan nan 243 nan nan nan nan nan nan nan nan nan nan nan nan 253 256 260 265 267 270 271 272 272 271 272 272 272 272 274 277 279 280 282 284 284 283 283 283 286 288
257 nan nan nan nan nan nan nan nan nan nan nan nan nan nan nan nan nan nan nan nan nan nan nan nan nan nan nan nan nan nan nan 251 251 250 249 248 247 247 247 246 246 246 245 nan nan nan nan 244 nan nan nan nan nan nan nan nan nan nan nan nan nan nan 263 266 268 270 270 271 271 270 270 270 269 268 267 269 271 272 273 277 281 282 284 286 284
270 nan nan nan nan nan nan nan nan nan nan nan nan nan nan nan nan nan nan nan nan nan nan nan nan nan nan nan nan nan nan nan 249 249 248 248 246 245 246 246 245 244 244 244 nan nan nan nan nan nan nan nan nan nan nan nan nan nan nan nan nan nan nan nan nan nan 267 267 267 269 270 268 267 266 264 263 263 263 264 266 270 275 278 282 281 281
261 nan nan 277 nan nan nan nan nan nan nan nan nan nan nan nan nan nan nan nan nan nan nan nan nan nan nan nan nan nan nan nan 245 243 245 247 247 246 244 243 244 244 242 241 nan nan nan nan nan nan nan nan nan nan nan nan nan nan nan nan nan nan nan nan nan nan nan nan 267 267 268 270 269 267 266 265 263 262 263 265 267 269 272 276 281 281
nan nan nan 271 nan nan nan nan nan nan nan nan nan nan nan nan nan nan nan nan nan nan nan nan nan nan nan nan nan nan nan nan nan 247 244 244 248 248 248 247 247 246 246 nan nan nan nan nan nan nan nan nan nan nan nan nan nan nan nan nan nan nan nan nan nan nan nan nan nan nan nan 269 269 269 268 267 266 265 265 265 266 271 275 278 281 282
nan nan nan nan nan nan nan nan nan nan nan nan nan nan nan nan nan nan nan nan nan nan nan nan nan nan nan nan nan nan nan nan nan nan 244 243 241 243 244 244 246 nan nan nan nan nan nan nan nan nan nan nan nan nan nan nan nan nan nan nan nan nan nan nan nan nan nan nan nan nan nan nan nan nan 267 267 266 265 266 267 273 278 279 279 280 281
nan nan nan nan nan nan nan nan nan nan nan nan nan nan nan nan nan nan nan nan nan nan nan nan nan nan nan nan nan nan nan nan nan nan nan nan nan nan 240 241 242 244 244 243 nan nan nan nan nan nan nan nan nan nan nan nan nan nan nan nan nan nan nan nan nan nan nan nan nan nan nan nan nan nan nan nan 262 265 268 273 279 281 279 278 277 278
nan nan nan nan nan nan nan nan nan nan nan nan nan nan nan nan nan nan nan nan nan nan nan nan nan nan nan nan nan nan nan nan nan nan nan nan nan nan nan nan nan nan nan 239 238 240 nan nan nan nan nan nan nan nan nan nan nan nan nan nan nan nan nan nan nan nan nan nan nan nan nan nan nan nan nan nan nan 264 266 269 273 276 276 276 276 277
nan nan nan nan nan nan nan nan nan nan nan nan nan nan nan nan nan nan nan nan nan nan nan nan nan nan nan nan nan nan nan nan nan nan nan nan nan nan nan nan nan nan nan nan nan nan nan nan nan nan nan nan nan nan nan nan nan nan nan nan nan nan nan nan nan nan nan nan nan nan nan nan nan nan nan nan nan nan 266 267 269 270 272 273 274 274
nan nan nan nan nan nan nan nan nan nan nan nan nan nan nan nan nan nan nan nan nan nan nan nan nan nan nan nan nan nan nan nan nan nan nan nan nan nan nan nan nan nan nan nan nan nan nan nan nan nan nan nan nan nan nan nan nan nan nan nan nan nan nan nan nan nan nan nan nan nan nan nan nan nan nan nan nan nan nan 269 270 271 273 274 274 274
nan nan nan nan nan nan nan nan nan nan nan nan nan nan nan nan nan nan nan nan nan nan nan nan nan nan nan nan nan nan nan nan nan nan nan nan nan nan nan nan nan nan nan nan nan nan nan nan nan nan nan nan nan nan nan nan nan nan nan nan nan nan nan nan nan nan nan nan nan nan nan nan nan nan nan nan nan nan nan nan 272 273 275 275 275 274
nan nan nan nan nan nan nan nan nan nan nan nan nan nan nan nan nan nan nan nan nan nan nan nan nan nan nan nan nan nan nan nan nan nan nan nan nan nan nan nan nan nan nan nan nan nan nan nan nan nan nan nan nan nan nan nan nan nan nan nan nan nan nan nan nan nan nan nan nan nan nan nan nan nan nan nan nan nan nan nan nan 273 274 275 275 274
nan nan nan nan nan nan nan nan nan nan nan nan nan nan nan nan nan nan nan nan nan nan nan nan nan nan nan nan nan nan nan nan nan nan nan nan nan nan nan nan nan nan nan nan nan nan nan nan nan nan nan nan nan nan nan nan nan nan nan nan nan nan nan nan nan nan nan nan nan nan nan nan nan nan nan nan nan nan nan nan 271 273 274 275 274 274
nan nan nan nan nan nan nan nan nan nan nan nan nan nan nan nan nan nan nan nan nan nan nan nan nan nan nan nan nan nan nan nan nan nan nan nan nan nan nan nan nan nan nan nan nan nan nan nan nan nan nan nan nan nan nan nan nan nan nan nan nan nan nan nan nan nan nan nan nan nan nan nan nan nan nan nan nan nan nan nan nan 271 274 274 274 274
nan nan nan nan nan nan nan nan nan nan nan nan nan nan nan nan nan nan nan nan nan nan nan nan nan nan nan nan nan nan nan nan nan nan nan nan nan nan nan nan nan nan nan nan nan nan nan nan nan nan nan nan nan nan nan nan nan nan nan nan nan nan nan nan nan nan nan nan nan nan nan nan nan nan nan nan nan nan nan nan nan nan 270 272 273 273
nan nan nan nan nan nan nan nan nan nan nan nan nan nan nan nan nan nan nan nan nan nan nan nan nan nan nan nan nan nan nan nan nan nan nan nan nan nan nan nan nan nan nan nan nan nan nan nan nan nan nan nan nan nan nan nan nan nan nan nan nan nan nan nan nan nan nan nan nan nan nan nan nan nan nan nan nan nan nan nan nan nan nan 269 270 271
nan nan nan nan nan nan nan nan nan nan nan nan nan nan nan nan nan nan nan nan nan nan nan nan nan nan nan nan nan nan nan nan nan nan nan nan nan nan nan nan nan nan nan nan nan nan nan nan nan nan nan nan nan nan nan nan nan nan nan nan nan nan nan nan nan nan nan nan nan nan nan nan nan nan nan nan nan nan nan nan nan nan nan 264 266 267
nan nan nan nan nan nan nan nan nan nan nan nan nan nan nan nan nan nan nan nan nan nan nan nan nan nan nan nan nan nan nan nan nan nan nan nan nan nan nan nan nan nan nan nan nan nan nan nan nan nan nan nan nan nan nan nan nan nan nan nan nan nan nan nan nan nan nan nan nan nan nan nan nan nan nan nan nan nan nan nan nan nan nan 258 259 260
nan nan nan nan nan nan nan nan nan nan nan nan nan nan nan nan nan nan nan nan nan nan nan nan nan nan nan nan nan nan nan nan nan nan nan nan nan nan nan nan nan nan nan nan nan nan nan nan nan nan nan nan nan nan nan nan nan nan nan nan nan nan nan nan nan nan nan nan nan nan nan nan nan nan nan nan nan nan nan nan nan nan nan nan 256 254
nan nan nan nan nan nan nan nan nan nan nan nan nan nan nan nan nan nan nan nan nan nan nan nan nan nan nan nan nan nan nan nan nan nan nan nan nan nan nan nan nan nan nan nan nan nan nan nan nan nan nan nan nan nan nan nan nan nan nan nan nan nan nan nan nan nan nan nan nan nan nan nan nan nan nan nan nan nan nan nan nan nan nan nan nan nan
nan nan nan nan nan nan nan nan nan nan nan nan nan nan nan nan nan nan nan nan nan nan nan nan nan nan nan nan nan nan nan nan nan nan nan nan nan nan nan nan nan nan nan nan nan nan nan nan nan nan nan nan nan nan nan nan nan nan nan nan nan nan nan nan nan nan nan nan nan nan nan nan nan nan nan nan nan nan nan nan nan nan nan nan nan nan